P4MALC LESO-GEML

Flight info

Callsign P4MALC
Flight time N/A
Altitude 17000
Route PPN N10 CJN M143 AMR/N0196F180 M372 ESAMI
Aircraft BT36/L-BDFGLORY/S

Departure

Time N/A
Airport San Sebastián Airport (LESO)

Arrival

Time 2026-05-03 22:16
Airport Melilla Airport (GEML)
Time Latitude Longitude Altitude Speed Heading
2026-05-03 20:15 40.97072 -2.59831 24985 ft 192 kts 185°
2026-05-03 20:15 40.95737 -2.59709 24985 ft 192 kts 185°
2026-05-03 20:15 40.94418 -2.59590 24985 ft 192 kts 185°
2026-05-03 20:15 40.93083 -2.59470 24985 ft 192 kts 185°
2026-05-03 20:16 40.91757 -2.59350 24990 ft 192 kts 185°
2026-05-03 20:16 40.90422 -2.59229 24989 ft 192 kts 185°
2026-05-03 20:16 40.89089 -2.59109 24988 ft 192 kts 185°
2026-05-03 20:16 40.87747 -2.58987 24979 ft 191 kts 185°
2026-05-03 20:17 40.86870 -2.58907 24987 ft 191 kts 185°
2026-05-03 20:17 40.85543 -2.58789 24988 ft 192 kts 185°
2026-05-03 20:17 40.84209 -2.58669 24989 ft 193 kts 185°
2026-05-03 20:17 40.82865 -2.58548 24990 ft 193 kts 185°
2026-05-03 20:18 40.81523 -2.58426 24990 ft 193 kts 185°
2026-05-03 20:18 40.79741 -2.58266 24993 ft 194 kts 185°
2026-05-03 20:18 40.78395 -2.58144 24991 ft 194 kts 185°
2026-05-03 20:18 40.77500 -2.58063 24993 ft 194 kts 185°
2026-05-03 20:19 40.76153 -2.57944 24993 ft 194 kts 185°
2026-05-03 20:19 40.74803 -2.57823 24995 ft 194 kts 185°
2026-05-03 20:19 40.73454 -2.57701 24995 ft 195 kts 185°
2026-05-03 20:19 40.72104 -2.57579 24993 ft 194 kts 185°
2026-05-03 20:20 40.70760 -2.57460 24995 ft 194 kts 185°
2026-05-03 20:20 40.69410 -2.57339 24994 ft 194 kts 185°
2026-05-03 20:20 40.68065 -2.57217 24994 ft 194 kts 185°
2026-05-03 20:20 40.66710 -2.57096 24995 ft 194 kts 185°
2026-05-03 20:21 40.65357 -2.56974 24995 ft 195 kts 185°
2026-05-03 20:21 40.64008 -2.56854 24995 ft 195 kts 185°
2026-05-03 20:21 40.62661 -2.56733 24996 ft 195 kts 185°
2026-05-03 20:21 40.61306 -2.56611 24994 ft 194 kts 185°
2026-05-03 20:22 40.59958 -2.56490 24997 ft 194 kts 185°
2026-05-03 20:22 40.58611 -2.56370 24997 ft 194 kts 185°
2026-05-03 20:22 40.57279 -2.56250 24996 ft 194 kts 185°
2026-05-03 20:22 40.55929 -2.56129 24995 ft 194 kts 185°
2026-05-03 20:23 40.54580 -2.56009 24997 ft 194 kts 185°
2026-05-03 20:23 40.53229 -2.55889 24996 ft 195 kts 185°
2026-05-03 20:23 40.51881 -2.55769 24997 ft 194 kts 185°
2026-05-03 20:23 40.50529 -2.55648 24997 ft 194 kts 185°
2026-05-03 20:24 40.49178 -2.55528 24996 ft 194 kts 185°
2026-05-03 20:24 40.47829 -2.55407 24997 ft 194 kts 185°
2026-05-03 20:24 40.46483 -2.55288 24997 ft 194 kts 185°
2026-05-03 20:24 40.45137 -2.55168 24997 ft 194 kts 185°
2026-05-03 20:25 40.43788 -2.55047 24995 ft 194 kts 185°
2026-05-03 20:25 40.42439 -2.54927 24993 ft 194 kts 186°
2026-05-03 20:25 40.41094 -2.54808 24993 ft 194 kts 185°
2026-05-03 20:25 40.39753 -2.54688 24992 ft 193 kts 185°
2026-05-03 20:26 40.38408 -2.54569 24993 ft 193 kts 185°
2026-05-03 20:26 40.37088 -2.54452 24994 ft 193 kts 185°
2026-05-03 20:26 40.35744 -2.54324 24997 ft 194 kts 185°
2026-05-03 20:26 40.34372 -2.54185 24998 ft 195 kts 185°
2026-05-03 20:27 40.33038 -2.54052 24999 ft 195 kts 185°
2026-05-03 20:27 40.31687 -2.53920 24997 ft 195 kts 185°
2026-05-03 20:27 40.30336 -2.53788 24999 ft 195 kts 185°
2026-05-03 20:27 40.28979 -2.53655 24999 ft 195 kts 185°
2026-05-03 20:28 40.27624 -2.53524 25001 ft 195 kts 185°
2026-05-03 20:28 40.26268 -2.53390 25001 ft 195 kts 185°
2026-05-03 20:28 40.24912 -2.53256 24999 ft 195 kts 185°
2026-05-03 20:28 40.23557 -2.53124 25001 ft 195 kts 185°
2026-05-03 20:29 40.22201 -2.52991 24990 ft 194 kts 185°
2026-05-03 20:29 40.20874 -2.52860 24994 ft 193 kts 185°
2026-05-03 20:29 40.19539 -2.52730 25004 ft 192 kts 185°
2026-05-03 20:29 40.18197 -2.52601 24999 ft 194 kts 185°
2026-05-03 20:30 40.16850 -2.52469 25003 ft 194 kts 185°
2026-05-03 20:30 40.15500 -2.52340 25003 ft 195 kts 185°
2026-05-03 20:30 40.14139 -2.52205 25009 ft 195 kts 185°
2026-05-03 20:30 40.12779 -2.52069 25001 ft 195 kts 185°
2026-05-03 20:31 40.11427 -2.51938 25011 ft 195 kts 185°
2026-05-03 20:31 40.10071 -2.51807 25010 ft 195 kts 185°
2026-05-03 20:31 40.08723 -2.51675 25006 ft 195 kts 185°
2026-05-03 20:31 40.07366 -2.51543 25011 ft 195 kts 185°
2026-05-03 20:32 40.06005 -2.51410 25012 ft 195 kts 185°
2026-05-03 20:32 40.04668 -2.51280 25006 ft 194 kts 185°
2026-05-03 20:32 40.03320 -2.51148 25008 ft 194 kts 185°
2026-05-03 20:32 40.01976 -2.51018 25006 ft 194 kts 185°
2026-05-03 20:33 40.00639 -2.50888 25002 ft 194 kts 185°
2026-05-03 20:33 39.99293 -2.50757 25004 ft 194 kts 185°
2026-05-03 20:33 39.97945 -2.50627 25005 ft 195 kts 185°
2026-05-03 20:33 39.96585 -2.50493 25003 ft 195 kts 185°
2026-05-03 20:34 39.95231 -2.50363 25004 ft 195 kts 185°
2026-05-03 20:34 39.93872 -2.50232 25004 ft 196 kts 185°
2026-05-03 20:34 39.92509 -2.50099 25005 ft 196 kts 185°
2026-05-03 20:34 39.91146 -2.49966 25005 ft 197 kts 185°
2026-05-03 20:35 39.89780 -2.49833 25004 ft 197 kts 185°
2026-05-03 20:35 39.88416 -2.49702 25004 ft 197 kts 185°
2026-05-03 20:35 39.87051 -2.49570 25005 ft 197 kts 185°
2026-05-03 20:35 39.85679 -2.49437 25005 ft 197 kts 185°
2026-05-03 20:36 39.84300 -2.49304 25010 ft 197 kts 185°
2026-05-03 20:36 39.82935 -2.49173 25009 ft 197 kts 185°
2026-05-03 20:36 39.81568 -2.49041 25009 ft 197 kts 185°
2026-05-03 20:36 39.80429 -2.48932 25010 ft 197 kts 185°
2026-05-03 20:37 39.80393 -2.48929 25010 ft 197 kts 185°
2026-05-03 20:37 39.79044 -2.48796 25009 ft 197 kts 185°
2026-05-03 20:37 39.78497 -2.48743 25009 ft 197 kts 185°
2026-05-03 20:37 39.77844 -2.48680 24988 ft 197 kts 185°
2026-05-03 20:38 39.77365 -2.48633 25002 ft 196 kts 185°
2026-05-03 20:38 39.77133 -2.48611 25004 ft 196 kts 185°
2026-05-03 20:38 39.76715 -2.48571 25006 ft 197 kts 185°
2026-05-03 20:38 39.75532 -2.48457 25005 ft 197 kts 185°
2026-05-03 20:39 39.74992 -2.48406 25003 ft 198 kts 185°
2026-05-03 20:39 39.73620 -2.48274 25002 ft 197 kts 185°
2026-05-03 20:39 39.72246 -2.48143 25002 ft 197 kts 185°
2026-05-03 20:39 39.70874 -2.48013 25004 ft 197 kts 185°
2026-05-03 20:40 39.69501 -2.47882 25006 ft 198 kts 185°
2026-05-03 20:40 39.68125 -2.47750 25007 ft 198 kts 185°
2026-05-03 20:40 39.66748 -2.47619 25007 ft 198 kts 185°
2026-05-03 20:40 39.65373 -2.47487 25007 ft 198 kts 185°
2026-05-03 20:41 39.63995 -2.47355 25002 ft 198 kts 185°
2026-05-03 20:41 39.62644 -2.47225 25003 ft 198 kts 185°
2026-05-03 20:41 39.61267 -2.47094 25004 ft 198 kts 185°
2026-05-03 20:41 39.59888 -2.46963 25004 ft 199 kts 185°
2026-05-03 20:42 39.58509 -2.46831 25006 ft 199 kts 185°
2026-05-03 20:42 39.57130 -2.46699 25007 ft 199 kts 185°
2026-05-03 20:42 39.55750 -2.46567 25006 ft 198 kts 185°
2026-05-03 20:42 39.54372 -2.46435 24995 ft 198 kts 186°
2026-05-03 20:43 39.53000 -2.46305 24997 ft 198 kts 186°
2026-05-03 20:43 39.51631 -2.46175 24997 ft 198 kts 186°
2026-05-03 20:43 39.50257 -2.46044 24997 ft 198 kts 186°
2026-05-03 20:43 39.48889 -2.45913 24998 ft 198 kts 186°
2026-05-03 20:44 39.47512 -2.45782 24995 ft 198 kts 186°
2026-05-03 20:44 39.46134 -2.45651 24996 ft 198 kts 186°
2026-05-03 20:44 39.44753 -2.45520 24996 ft 198 kts 186°
2026-05-03 20:44 39.43374 -2.45388 24997 ft 199 kts 186°
2026-05-03 20:45 39.42930 -2.45346 24996 ft 199 kts 186°
2026-05-03 20:45 39.42699 -2.45324 24998 ft 199 kts 186°
2026-05-03 20:45 39.41324 -2.45190 24997 ft 198 kts 186°
2026-05-03 20:46 39.39950 -2.45059 25001 ft 198 kts 186°
2026-05-03 20:46 39.38580 -2.44931 25000 ft 198 kts 186°
2026-05-03 20:46 39.37205 -2.44801 25000 ft 198 kts 186°
2026-05-03 20:46 39.35831 -2.44671 24997 ft 197 kts 186°
2026-05-03 20:47 39.34460 -2.44541 24997 ft 197 kts 186°
2026-05-03 20:47 39.33091 -2.44410 24998 ft 197 kts 186°
2026-05-03 20:47 39.31725 -2.44281 25000 ft 196 kts 186°
2026-05-03 20:47 39.30358 -2.44151 25001 ft 196 kts 186°
2026-05-03 20:48 39.29013 -2.44023 24999 ft 196 kts 186°
2026-05-03 20:48 39.27651 -2.43894 24996 ft 196 kts 186°
2026-05-03 20:48 39.26290 -2.43765 24996 ft 196 kts 186°
2026-05-03 20:48 39.24933 -2.43637 24996 ft 196 kts 186°
2026-05-03 20:49 39.23571 -2.43508 24996 ft 196 kts 186°
2026-05-03 20:49 39.22207 -2.43379 24996 ft 196 kts 186°
2026-05-03 20:49 39.20847 -2.43250 24996 ft 196 kts 186°
2026-05-03 20:49 39.19909 -2.43162 24996 ft 196 kts 186°
2026-05-03 20:50 39.19900 -2.43161 24997 ft 196 kts 186°
2026-05-03 20:51 39.18537 -2.43030 24999 ft 196 kts 186°
2026-05-03 20:51 39.17916 -2.42971 24999 ft 196 kts 186°
2026-05-03 20:51 39.17217 -2.42905 25001 ft 196 kts 186°
2026-05-03 20:51 39.15853 -2.42776 25005 ft 196 kts 186°
2026-05-03 20:52 39.14493 -2.42649 25001 ft 196 kts 186°
2026-05-03 20:52 39.13130 -2.42522 25002 ft 196 kts 186°
2026-05-03 20:52 39.11769 -2.42394 25001 ft 196 kts 186°
2026-05-03 20:52 39.10421 -2.42266 25001 ft 196 kts 186°
2026-05-03 20:53 39.09063 -2.42138 24998 ft 195 kts 187°
2026-05-03 20:53 39.07704 -2.42011 24997 ft 196 kts 187°
2026-05-03 20:53 39.06345 -2.41884 24997 ft 196 kts 187°
2026-05-03 20:53 39.04983 -2.41756 25001 ft 197 kts 187°
2026-05-03 20:54 39.03619 -2.41628 25001 ft 197 kts 187°
2026-05-03 20:54 39.00886 -2.41370 25001 ft 197 kts 187°
2026-05-03 20:54 38.99518 -2.41242 25007 ft 197 kts 187°
2026-05-03 20:55 38.98156 -2.41113 25007 ft 197 kts 187°
2026-05-03 20:55 38.96787 -2.40983 25007 ft 197 kts 187°
2026-05-03 20:55 38.95424 -2.40853 25006 ft 197 kts 187°
2026-05-03 20:55 38.94059 -2.40723 25008 ft 196 kts 187°
2026-05-03 20:56 38.92693 -2.40595 25007 ft 197 kts 187°
2026-05-03 20:56 38.91344 -2.40465 25012 ft 197 kts 187°
2026-05-03 20:56 38.89963 -2.40337 25013 ft 196 kts 187°
2026-05-03 20:56 38.88598 -2.40208 25016 ft 197 kts 187°
2026-05-03 20:57 38.87234 -2.40079 25016 ft 197 kts 187°
2026-05-03 20:57 38.85865 -2.39949 25014 ft 196 kts 187°
2026-05-03 20:57 38.84515 -2.39822 25012 ft 197 kts 187°
2026-05-03 20:57 38.83147 -2.39692 25013 ft 197 kts 187°
2026-05-03 20:58 38.81773 -2.39563 25015 ft 197 kts 187°
2026-05-03 20:58 38.80403 -2.39434 25017 ft 198 kts 187°
2026-05-03 20:58 38.79031 -2.39304 25015 ft 198 kts 187°
2026-05-03 20:58 38.77663 -2.39174 25020 ft 197 kts 187°
2026-05-03 20:59 38.76294 -2.39047 25019 ft 197 kts 187°
2026-05-03 20:59 38.74920 -2.38917 25019 ft 198 kts 187°
2026-05-03 20:59 38.73548 -2.38788 25019 ft 198 kts 187°
2026-05-03 20:59 38.72177 -2.38658 25023 ft 198 kts 187°
2026-05-03 21:00 38.70803 -2.38530 25024 ft 198 kts 187°
2026-05-03 21:00 38.70333 -2.38486 25024 ft 198 kts 187°
2026-05-03 21:00 38.68038 -2.38270 25025 ft 199 kts 187°
2026-05-03 21:00 38.66679 -2.38143 25025 ft 199 kts 187°
2026-05-03 21:01 38.65300 -2.38012 25024 ft 199 kts 187°
2026-05-03 21:01 38.63920 -2.37882 25025 ft 199 kts 187°
2026-05-03 21:01 38.62538 -2.37752 25020 ft 199 kts 188°
2026-05-03 21:01 38.61162 -2.37624 25034 ft 198 kts 188°
2026-05-03 21:02 38.59786 -2.37493 25029 ft 198 kts 188°
2026-05-03 21:02 38.58416 -2.37365 25029 ft 198 kts 188°
2026-05-03 21:02 38.57039 -2.37237 25032 ft 198 kts 188°
2026-05-03 21:02 38.55666 -2.37109 25029 ft 198 kts 188°
2026-05-03 21:03 38.54290 -2.36981 25029 ft 198 kts 188°
2026-05-03 21:03 38.53381 -2.36894 25030 ft 198 kts 188°
2026-05-03 21:03 38.52004 -2.36765 25030 ft 198 kts 188°
2026-05-03 21:03 38.50624 -2.36637 25032 ft 199 kts 188°
2026-05-03 21:04 38.49242 -2.36507 25030 ft 199 kts 188°
2026-05-03 21:04 38.47413 -2.36335 25028 ft 198 kts 188°
2026-05-03 21:04 38.46487 -2.36249 25028 ft 198 kts 188°
2026-05-03 21:04 38.45114 -2.36121 25032 ft 198 kts 188°
2026-05-03 21:05 38.43757 -2.35995 25032 ft 197 kts 188°
2026-05-03 21:05 38.42392 -2.35871 25033 ft 197 kts 188°
2026-05-03 21:05 38.41024 -2.35739 25032 ft 197 kts 188°
2026-05-03 21:05 38.39659 -2.35610 25029 ft 197 kts 187°
2026-05-03 21:06 38.38291 -2.35483 25032 ft 196 kts 188°
2026-05-03 21:06 38.36929 -2.35359 25035 ft 196 kts 188°
2026-05-03 21:06 38.35573 -2.35259 25034 ft 195 kts 191°
2026-05-03 21:06 38.34207 -2.35185 25037 ft 198 kts 188°
2026-05-03 21:07 38.32825 -2.35079 25037 ft 199 kts 189°
2026-05-03 21:07 38.31441 -2.34986 25040 ft 199 kts 189°
2026-05-03 21:07 38.30079 -2.34902 25041 ft 198 kts 189°
2026-05-03 21:07 38.28682 -2.34816 25040 ft 198 kts 189°
2026-05-03 21:08 38.27319 -2.34732 25044 ft 199 kts 189°
2026-05-03 21:08 38.25935 -2.34647 25045 ft 198 kts 189°
2026-05-03 21:08 38.24559 -2.34559 25047 ft 198 kts 189°
2026-05-03 21:08 38.23180 -2.34471 25045 ft 198 kts 189°
2026-05-03 21:09 38.21806 -2.34386 25045 ft 197 kts 189°
2026-05-03 21:09 38.20438 -2.34301 25045 ft 196 kts 189°
2026-05-03 21:09 38.19071 -2.34216 25044 ft 196 kts 189°
2026-05-03 21:09 38.17707 -2.34131 25041 ft 196 kts 189°
2026-05-03 21:10 38.16344 -2.34045 25029 ft 196 kts 190°
2026-05-03 21:10 38.14981 -2.33962 25041 ft 197 kts 190°
2026-05-03 21:10 38.13605 -2.33877 25039 ft 198 kts 190°
2026-05-03 21:10 38.12224 -2.33791 25038 ft 199 kts 189°
2026-05-03 21:11 38.10854 -2.33706 25038 ft 199 kts 189°
2026-05-03 21:11 38.09468 -2.33619 25038 ft 199 kts 189°
2026-05-03 21:11 38.08085 -2.33532 25037 ft 198 kts 190°
2026-05-03 21:11 38.06712 -2.33445 25052 ft 197 kts 190°
2026-05-03 21:12 38.05338 -2.33363 25049 ft 198 kts 190°
2026-05-03 21:12 38.03961 -2.33277 25048 ft 198 kts 189°
2026-05-03 21:12 38.02580 -2.33191 25048 ft 198 kts 190°
2026-05-03 21:12 38.01202 -2.33105 25050 ft 198 kts 190°
2026-05-03 21:13 37.99838 -2.33021 25049 ft 199 kts 190°
2026-05-03 21:13 37.98455 -2.32936 25049 ft 199 kts 189°
2026-05-03 21:13 37.97072 -2.32849 25049 ft 199 kts 189°
2026-05-03 21:13 37.95688 -2.32764 25049 ft 198 kts 189°
2026-05-03 21:14 37.94311 -2.32678 25050 ft 199 kts 190°
2026-05-03 21:14 37.92929 -2.32593 25033 ft 199 kts 190°
2026-05-03 21:14 37.91546 -2.32508 25044 ft 199 kts 190°
2026-05-03 21:14 37.90166 -2.32422 25043 ft 199 kts 190°
2026-05-03 21:15 37.88788 -2.32337 25043 ft 199 kts 190°
2026-05-03 21:15 37.87405 -2.32252 25039 ft 199 kts 189°
2026-05-03 21:15 37.86024 -2.32166 25039 ft 198 kts 190°
2026-05-03 21:15 37.84645 -2.32081 25040 ft 199 kts 190°
2026-05-03 21:16 37.83263 -2.31996 25040 ft 199 kts 190°
2026-05-03 21:16 37.81898 -2.31912 25040 ft 199 kts 190°
2026-05-03 21:16 37.80517 -2.31828 25041 ft 199 kts 190°
2026-05-03 21:16 37.79134 -2.31742 25044 ft 199 kts 190°
2026-05-03 21:17 37.77754 -2.31654 25039 ft 198 kts 190°
2026-05-03 21:17 37.76841 -2.31600 25039 ft 199 kts 190°
2026-05-03 21:17 37.74990 -2.31485 25041 ft 199 kts 190°
2026-05-03 21:17 37.73607 -2.31402 25040 ft 199 kts 190°
2026-05-03 21:18 37.72227 -2.31317 25040 ft 199 kts 190°
2026-05-03 21:18 37.70839 -2.31231 25040 ft 199 kts 190°
2026-05-03 21:18 37.69453 -2.31146 25041 ft 199 kts 190°
2026-05-03 21:18 37.68072 -2.31060 25035 ft 198 kts 190°
2026-05-03 21:19 37.66701 -2.30976 25034 ft 198 kts 190°
2026-05-03 21:19 37.65325 -2.30892 25036 ft 198 kts 190°
2026-05-03 21:19 37.63950 -2.30808 25040 ft 196 kts 190°
2026-05-03 21:19 37.62579 -2.30723 25030 ft 196 kts 190°
2026-05-03 21:20 37.61247 -2.30645 25047 ft 194 kts 191°
2026-05-03 21:20 37.59896 -2.30580 25046 ft 195 kts 191°
2026-05-03 21:20 37.58533 -2.30511 25046 ft 196 kts 191°
2026-05-03 21:20 37.57170 -2.30438 25049 ft 196 kts 191°
2026-05-03 21:21 37.55807 -2.30365 25049 ft 196 kts 191°
2026-05-03 21:21 37.54447 -2.30293 25050 ft 196 kts 191°
2026-05-03 21:21 37.53078 -2.30221 25050 ft 196 kts 191°
2026-05-03 21:21 37.51714 -2.30149 25049 ft 196 kts 191°
2026-05-03 21:22 37.50345 -2.30083 25051 ft 197 kts 191°
2026-05-03 21:22 37.48971 -2.30004 25046 ft 198 kts 191°
2026-05-03 21:22 37.47597 -2.29928 25045 ft 197 kts 191°
2026-05-03 21:22 37.46226 -2.29857 25043 ft 197 kts 191°
2026-05-03 21:23 37.44862 -2.29786 25034 ft 196 kts 191°
2026-05-03 21:23 37.43500 -2.29714 25033 ft 196 kts 191°
2026-05-03 21:23 37.42156 -2.29644 25036 ft 196 kts 191°
2026-05-03 21:23 37.40786 -2.29572 25035 ft 197 kts 191°
2026-05-03 21:24 37.39421 -2.29499 25034 ft 197 kts 191°
2026-05-03 21:24 37.38048 -2.29427 25035 ft 197 kts 191°
2026-05-03 21:24 37.36676 -2.29356 25037 ft 198 kts 191°
2026-05-03 21:24 37.35301 -2.29283 25038 ft 197 kts 191°
2026-05-03 21:25 37.33933 -2.29212 25038 ft 197 kts 191°
2026-05-03 21:25 37.32565 -2.29138 25038 ft 196 kts 191°
2026-05-03 21:25 37.31213 -2.29067 25028 ft 196 kts 191°
2026-05-03 21:25 37.29853 -2.28994 25018 ft 195 kts 191°
2026-05-03 21:26 37.28504 -2.28911 25031 ft 195 kts 191°
2026-05-03 21:26 37.27145 -2.28818 25024 ft 195 kts 191°
2026-05-03 21:26 37.25792 -2.28726 25028 ft 194 kts 191°
2026-05-03 21:26 37.24428 -2.28639 25027 ft 197 kts 191°
2026-05-03 21:27 37.23057 -2.28549 25028 ft 197 kts 190°
2026-05-03 21:27 37.21689 -2.28458 25028 ft 197 kts 191°
2026-05-03 21:27 37.20320 -2.28365 25020 ft 197 kts 191°
2026-05-03 21:27 37.18946 -2.28276 25021 ft 198 kts 192°
2026-05-03 21:28 37.17564 -2.28186 25020 ft 199 kts 191°
2026-05-03 21:28 37.16201 -2.28096 25021 ft 199 kts 191°
2026-05-03 21:28 37.14818 -2.28005 25019 ft 200 kts 191°
2026-05-03 21:28 37.13428 -2.27913 25020 ft 200 kts 191°
2026-05-03 21:29 37.12040 -2.27820 25019 ft 199 kts 191°
2026-05-03 21:29 37.10652 -2.27730 25017 ft 199 kts 191°
2026-05-03 21:29 37.09267 -2.27640 25015 ft 199 kts 191°
2026-05-03 21:29 37.07878 -2.27548 25012 ft 199 kts 191°
2026-05-03 21:30 37.06495 -2.27457 25011 ft 199 kts 191°
2026-05-03 21:30 37.05127 -2.27367 25010 ft 199 kts 191°
2026-05-03 21:30 37.03742 -2.27277 25008 ft 199 kts 191°
2026-05-03 21:30 37.02359 -2.27184 25007 ft 199 kts 191°
2026-05-03 21:31 37.00983 -2.27093 25005 ft 198 kts 191°
2026-05-03 21:31 36.99608 -2.27007 25006 ft 198 kts 191°
2026-05-03 21:31 36.98226 -2.26917 25006 ft 199 kts 191°
2026-05-03 21:31 36.96838 -2.26826 24987 ft 200 kts 192°
2026-05-03 21:32 36.95444 -2.26733 25002 ft 200 kts 192°
2026-05-03 21:32 36.94060 -2.26642 24997 ft 199 kts 192°
2026-05-03 21:32 36.92679 -2.26551 24997 ft 198 kts 192°
2026-05-03 21:32 36.91306 -2.26462 24998 ft 197 kts 192°
2026-05-03 21:33 36.89935 -2.26373 24998 ft 197 kts 192°
2026-05-03 21:33 36.88569 -2.26283 24996 ft 197 kts 192°
2026-05-03 21:33 36.87200 -2.26194 24996 ft 197 kts 192°
2026-05-03 21:33 36.85849 -2.26107 24995 ft 197 kts 192°
2026-05-03 21:34 36.84485 -2.26017 24996 ft 196 kts 192°
2026-05-03 21:34 36.83144 -2.26045 24992 ft 185 kts 204°
2026-05-03 21:34 36.81958 -2.26534 24997 ft 179 kts 211°
2026-05-03 21:34 36.80778 -2.27043 24998 ft 180 kts 211°
2026-05-03 21:35 36.79594 -2.27551 25002 ft 180 kts 211°
2026-05-03 21:35 36.78413 -2.28061 25004 ft 179 kts 211°
2026-05-03 21:35 36.77236 -2.28570 25000 ft 179 kts 211°
2026-05-03 21:35 36.76056 -2.29080 25013 ft 179 kts 211°
2026-05-03 21:36 36.74880 -2.29588 25012 ft 179 kts 211°
2026-05-03 21:36 36.73700 -2.30098 25011 ft 179 kts 211°
2026-05-03 21:36 36.72526 -2.30605 25002 ft 178 kts 211°
2026-05-03 21:36 36.71355 -2.31109 24999 ft 178 kts 211°
2026-05-03 21:37 36.70183 -2.31615 24999 ft 178 kts 211°
2026-05-03 21:37 36.69008 -2.32123 25000 ft 179 kts 211°
2026-05-03 21:37 36.67831 -2.32631 25002 ft 179 kts 211°
2026-05-03 21:37 36.66647 -2.33141 25003 ft 180 kts 211°
2026-05-03 21:38 36.65480 -2.33644 25005 ft 180 kts 211°
2026-05-03 21:38 36.64299 -2.34152 25006 ft 180 kts 211°
2026-05-03 21:38 36.63112 -2.34663 25007 ft 180 kts 211°
2026-05-03 21:38 36.61929 -2.35172 25008 ft 180 kts 211°
2026-05-03 21:39 36.60746 -2.35682 25010 ft 180 kts 211°
2026-05-03 21:39 36.59560 -2.36192 25011 ft 180 kts 211°
2026-05-03 21:39 36.58376 -2.36701 25012 ft 180 kts 211°
2026-05-03 21:39 36.57193 -2.37209 25013 ft 180 kts 211°
2026-05-03 21:40 36.56023 -2.37712 25021 ft 180 kts 211°
2026-05-03 21:40 36.54825 -2.38227 25021 ft 180 kts 211°
2026-05-03 21:40 36.53658 -2.38728 25021 ft 180 kts 211°
2026-05-03 21:40 36.52474 -2.39236 25024 ft 180 kts 211°
2026-05-03 21:41 36.51291 -2.39744 25024 ft 180 kts 211°
2026-05-03 21:41 36.50109 -2.40252 25024 ft 180 kts 211°
2026-05-03 21:41 36.48924 -2.40760 25024 ft 180 kts 211°
2026-05-03 21:41 36.47737 -2.41268 25024 ft 180 kts 211°
2026-05-03 21:42 36.46556 -2.41774 25021 ft 180 kts 211°
2026-05-03 21:42 36.45370 -2.42283 25022 ft 180 kts 211°
2026-05-03 21:42 36.44186 -2.42791 25022 ft 180 kts 211°
2026-05-03 21:42 36.42995 -2.43300 25021 ft 180 kts 211°
2026-05-03 21:43 36.41807 -2.43809 25025 ft 181 kts 211°
2026-05-03 21:43 36.40616 -2.44319 25025 ft 181 kts 211°
2026-05-03 21:43 36.39439 -2.44822 25025 ft 181 kts 211°
2026-05-03 21:43 36.38247 -2.45332 25025 ft 181 kts 211°
2026-05-03 21:44 36.37057 -2.45840 25026 ft 181 kts 211°
2026-05-03 21:44 36.35867 -2.46349 25025 ft 181 kts 211°
2026-05-03 21:44 36.34675 -2.46858 25024 ft 181 kts 211°
2026-05-03 21:44 36.33486 -2.47366 25026 ft 181 kts 211°
2026-05-03 21:45 36.32295 -2.47875 25028 ft 181 kts 211°
2026-05-03 21:45 36.31105 -2.48383 25029 ft 181 kts 211°
2026-05-03 21:45 36.29915 -2.48890 25029 ft 181 kts 211°
2026-05-03 21:45 36.28724 -2.49398 25027 ft 181 kts 211°
2026-05-03 21:46 36.27534 -2.49905 25029 ft 181 kts 211°
2026-05-03 21:46 36.26345 -2.50412 25028 ft 181 kts 211°
2026-05-03 21:46 36.25154 -2.50919 25028 ft 181 kts 211°
2026-05-03 21:46 36.23965 -2.51426 25030 ft 181 kts 211°
2026-05-03 21:47 36.22790 -2.51926 25031 ft 181 kts 211°
2026-05-03 21:47 36.21603 -2.52431 25028 ft 180 kts 211°
2026-05-03 21:47 36.20418 -2.52936 25032 ft 180 kts 211°
2026-05-03 21:47 36.19231 -2.53441 25033 ft 181 kts 211°
2026-05-03 21:48 36.18039 -2.53949 25034 ft 181 kts 211°
2026-05-03 21:48 36.16847 -2.54456 25033 ft 181 kts 211°
2026-05-03 21:48 36.15653 -2.54963 25032 ft 182 kts 211°
2026-05-03 21:48 36.14457 -2.55471 25036 ft 182 kts 211°
2026-05-03 21:49 36.13261 -2.55979 25034 ft 182 kts 211°
2026-05-03 21:49 36.12067 -2.56486 25033 ft 182 kts 211°
2026-05-03 21:49 36.10872 -2.56993 25036 ft 182 kts 211°
2026-05-03 21:49 36.09674 -2.57502 25032 ft 182 kts 211°
2026-05-03 21:50 36.08475 -2.58010 25032 ft 182 kts 211°
2026-05-03 21:50 36.07280 -2.58517 25031 ft 182 kts 211°
2026-05-03 21:50 36.06082 -2.59025 25037 ft 182 kts 211°
2026-05-03 21:50 36.05286 -2.59360 25034 ft 182 kts 211°
2026-05-03 21:51 36.03690 -2.60011 25037 ft 182 kts 211°
2026-05-03 21:51 36.02875 -2.60342 25030 ft 182 kts 211°
2026-05-03 21:51 36.01280 -2.60988 25034 ft 182 kts 211°
2026-05-03 21:51 36.00074 -2.61476 25028 ft 182 kts 211°
2026-05-03 21:52 35.99273 -2.61801 25037 ft 182 kts 211°
2026-05-03 21:52 35.98068 -2.62288 25035 ft 182 kts 211°
2026-05-03 21:52 35.96863 -2.62775 25033 ft 182 kts 211°
2026-05-03 21:52 35.95658 -2.63263 25037 ft 182 kts 211°
2026-05-03 21:53 35.94448 -2.63753 25037 ft 182 kts 211°
2026-05-03 21:53 35.93245 -2.64240 25035 ft 182 kts 211°
2026-05-03 21:53 35.92037 -2.64730 25037 ft 182 kts 211°
2026-05-03 21:53 35.90832 -2.65218 25036 ft 182 kts 211°
2026-05-03 21:54 35.89627 -2.65706 25040 ft 182 kts 211°
2026-05-03 21:54 35.88418 -2.66195 25040 ft 182 kts 211°
2026-05-03 21:54 35.87225 -2.66679 25038 ft 182 kts 211°
2026-05-03 21:54 35.86020 -2.67167 25041 ft 182 kts 211°
2026-05-03 21:55 35.84816 -2.67658 25050 ft 182 kts 211°
2026-05-03 21:55 35.83613 -2.68148 25049 ft 182 kts 211°
2026-05-03 21:55 35.82392 -2.68654 24861 ft 189 kts 211°
2026-05-03 21:55 35.81125 -2.69199 24626 ft 195 kts 211°
2026-05-03 21:56 35.79831 -2.69766 24383 ft 199 kts 211°
2026-05-03 21:56 35.78520 -2.70349 24147 ft 201 kts 211°
2026-05-03 21:56 35.77196 -2.70941 23917 ft 203 kts 210°
2026-05-03 21:56 35.75859 -2.71508 23688 ft 202 kts 209°
2026-05-03 21:57 35.74535 -2.72054 23426 ft 200 kts 209°
2026-05-03 21:57 35.73236 -2.72592 23153 ft 199 kts 209°
2026-05-03 21:57 35.71929 -2.73135 22857 ft 198 kts 209°
2026-05-03 21:57 35.70622 -2.73679 22590 ft 198 kts 209°
2026-05-03 21:58 35.69314 -2.74223 22329 ft 198 kts 209°
2026-05-03 21:58 35.68009 -2.74764 22073 ft 198 kts 209°
2026-05-03 21:58 35.66702 -2.75307 21821 ft 198 kts 208°
2026-05-03 21:58 35.65393 -2.75849 21572 ft 198 kts 208°
2026-05-03 21:59 35.64089 -2.76390 21328 ft 198 kts 208°
2026-05-03 21:59 35.62788 -2.76929 21084 ft 197 kts 208°
2026-05-03 21:59 35.61487 -2.77469 20838 ft 197 kts 208°
2026-05-03 21:59 35.60192 -2.78005 20603 ft 196 kts 208°
2026-05-03 22:00 35.58918 -2.78533 20375 ft 195 kts 208°
2026-05-03 22:00 35.57635 -2.79063 20137 ft 194 kts 208°
2026-05-03 22:00 35.56356 -2.79593 19910 ft 193 kts 208°
2026-05-03 22:00 35.55085 -2.80119 19684 ft 192 kts 208°
2026-05-03 22:01 35.53823 -2.80640 19460 ft 190 kts 207°
2026-05-03 22:01 35.52567 -2.81160 19238 ft 190 kts 207°
2026-05-03 22:01 35.51318 -2.81677 19024 ft 189 kts 207°
2026-05-03 22:01 35.50089 -2.82185 18810 ft 188 kts 207°
2026-05-03 22:02 35.48901 -2.82814 18596 ft 184 kts 214°
2026-05-03 22:02 35.47688 -2.83346 18375 ft 195 kts 195°
2026-05-03 22:02 35.46297 -2.82931 18101 ft 220 kts 165°
2026-05-03 22:02 35.45074 -2.81683 17843 ft 241 kts 139°
2026-05-03 22:03 35.44282 -2.79799 17582 ft 250 kts 124°
2026-05-03 22:03 35.43404 -2.78021 17343 ft 240 kts 137°
2026-05-03 22:03 35.42363 -2.76451 17108 ft 233 kts 144°
2026-05-03 22:03 35.41218 -2.75086 16876 ft 226 kts 151°
2026-05-03 22:04 35.40000 -2.73903 16647 ft 220 kts 156°
2026-05-03 22:04 35.38733 -2.72877 16317 ft 218 kts 161°
2026-05-03 22:04 35.37419 -2.71992 15886 ft 213 kts 166°
2026-05-03 22:04 35.36099 -2.71256 15452 ft 209 kts 170°
2026-05-03 22:05 35.34753 -2.70710 15017 ft 196 kts 182°
2026-05-03 22:05 35.33451 -2.70744 14578 ft 180 kts 200°
2026-05-03 22:05 35.32321 -2.71260 14109 ft 169 kts 215°
2026-05-03 22:05 35.31420 -2.72140 13622 ft 164 kts 229°
2026-05-03 22:06 35.30786 -2.73294 13101 ft 164 kts 242°
2026-05-03 22:06 35.30458 -2.74633 12598 ft 167 kts 256°
2026-05-03 22:06 35.30308 -2.76051 12095 ft 168 kts 257°
2026-05-03 22:06 35.30304 -2.77484 11601 ft 177 kts 278°
2026-05-03 22:07 35.31088 -2.78742 11111 ft 201 kts 315°
2026-05-03 22:07 35.32482 -2.79250 10636 ft 222 kts 350°
2026-05-03 22:07 35.34033 -2.79070 10164 ft 227 kts
2026-05-03 22:07 35.35410 -2.78112 9665 ft 232 kts 44°
2026-05-03 22:08 35.36184 -2.76427 9152 ft 226 kts 76°
2026-05-03 22:08 35.36543 -2.74579 8654 ft 220 kts 84°
2026-05-03 22:08 35.36384 -2.72815 8155 ft 206 kts 120°
2026-05-03 22:08 35.35498 -2.71578 7662 ft 186 kts 158°
2026-05-03 22:09 35.34326 -2.71008 7192 ft 179 kts 169°
2026-05-03 22:09 35.33148 -2.70983 6710 ft 166 kts 205°
2026-05-03 22:09 35.32312 -2.71881 6234 ft 162 kts 237°
2026-05-03 22:10 35.31248 -2.74343 5246 ft 165 kts 244°
2026-05-03 22:10 35.30745 -2.75617 4760 ft 167 kts 245°
2026-05-03 22:10 35.30227 -2.76901 4258 ft 169 kts 245°
2026-05-03 22:10 35.29724 -2.78202 3763 ft 168 kts 253°
2026-05-03 22:11 35.29556 -2.79607 3275 ft 167 kts 266°
2026-05-03 22:11 35.29446 -2.81023 2781 ft 166 kts 265°
2026-05-03 22:11 35.29338 -2.82405 2297 ft 160 kts 265°
2026-05-03 22:11 35.29239 -2.83720 1808 ft 156 kts 265°
2026-05-03 22:12 35.29149 -2.84971 1612 ft 138 kts 265°
2026-05-03 22:12 35.29072 -2.86095 1465 ft 127 kts 265°
2026-05-03 22:12 35.29004 -2.87139 1367 ft 117 kts 265°
2026-05-03 22:12 35.28941 -2.88088 1325 ft 107 kts 265°
2026-05-03 22:13 35.28638 -2.88880 1278 ft 105 kts 234°
2026-05-03 22:13 35.28207 -2.89600 1242 ft 105 kts 235°
2026-05-03 22:13 35.27817 -2.90361 1213 ft 106 kts 237°
2026-05-03 22:13 35.27247 -2.90906 1191 ft 109 kts 209°
2026-05-03 22:14 35.26590 -2.91343 1170 ft 109 kts 213°
2026-05-03 22:14 35.25950 -2.91789 1165 ft 93 kts 220°
2026-05-03 22:14 35.25665 -2.92389 1008 ft 81 kts 266°
2026-05-03 22:14 35.25763 -2.93087 851 ft 84 kts 284°
2026-05-03 22:15 35.26022 -2.93732 690 ft 84 kts 302°
2026-05-03 22:15 35.26406 -2.94273 541 ft 84 kts 315°
2026-05-03 22:15 35.26868 -2.94727 339 ft 85 kts 323°
2026-05-03 22:15 35.27341 -2.95103 205 ft 78 kts 324°
2026-05-03 22:16 35.27732 -2.95424 152 ft 52 kts 326°
2026-05-03 22:16 35.27890 -2.95554 161 ft 13 kts 325°
2026-05-03 22:16 35.27893 -2.95633 162 ft 10 kts 200°
2026-05-03 22:16 35.27847 -2.95644 166 ft 5 kts 191°
2026-05-03 22:17 35.27827 -2.95649 168 ft 3 kts 190°
2026-05-03 22:17 35.27799 -2.95654 169 ft 8 kts 179°
2026-05-03 22:17 35.27746 -2.95618 169 ft 5 kts 158°
2026-05-03 22:17 35.27757 -2.95634 169 ft 6 kts 342°
2026-05-03 22:18 35.27803 -2.95662 169 ft 8 kts 327°
2026-05-03 22:18 35.27834 -2.95693 169 ft 3 kts 307°
2026-05-03 22:18 35.27839 -2.95700 169 ft 0 kts 327°
2026-05-03 22:18 35.27845 -2.95704 169 ft 1 kts 326°
2026-05-03 22:19 35.27845 -2.95705 169 ft 0 kts 326°